Tracking 21076 objects as of 7-Aug-2020
HD Live streaming from Space Station
objects crossing your sky now

METEOR 2-5 DEB

Track METEOR 2-5 DEB now!
10-day predictions


NORAD ID: 39608
Int'l Code: 1979-095CK
Perigee: 827.9 km
Apogee: 848.7 km
Inclination: 81.2 °
Period: 101.5 minutes
Semi major axis: 7209 km
RCS: Unknown
Launch date: October 31, 1979
Source: Commonwealth of Independent States (former USSR) (CIS)
Launch site: PLESETSK MISSILE AND SPACE COMPLEX (PKMTR)

Note: This is SATELLITE DEBRIS
aabbcc
Your satellite tracking list
Your tracking list is empty




NASA's NSSDC Master Catalog

Two Line Element Set (TLE):
1 39608U 79095CK  20218.44456846  .00001018  00000-0  48801-3 0  9994
2 39608  81.2039 115.9282 0014431  82.7018 277.5797 14.18273544424203
Source of the keplerian elements: AFSPC